When you browse on this site, cookies collect data to enhance your experience and personalize the content and advertising you see.
Visit our Privacy Policy to learn more. By continuing to use the site, you agree to this use of cookies and data.
  • In Lithuania
  • List of Countries
  • For 7 days
  • Water Temperature
  • Satellite Maps
  • Weather Map
  • Weather Widgets
  • user-avatar
    Login

    Hourly Weather Fatwa

    Today, 13 December, Thursday

    Time Temperature Precipitation Wind Pressure Humidity
    00:00 +22°C° 0 mm 1 mps 758 mmHg 46%
    01:00 +19°C° 0 mm 0 mps 758 mmHg 47%
    02:00 +19°C° 0 mm 0 mps 758 mmHg 48%
    03:00 +18°C° 0 mm 0 mps 758 mmHg 50%
    04:00 +18°C° 0 mm 0 mps 758 mmHg 51%
    05:00 +18°C° 0 mm 0 mps 758 mmHg 52%
    06:00 +17°C° 0 mm 0 mps 758 mmHg 56%
    07:00 +18°C° 0 mm 0 mps 759 mmHg 53%
    08:00 +19°C° 0 mm 0 mps 759 mmHg 49%
    09:00 +21°C° 0 mm 0 mps 759 mmHg 46%
    10:00 +22°C° 0 mm 0 mps 759 mmHg 42%
    11:00 +24°C° 0 mm 0 mps 759 mmHg 38%
    12:00 +26°C° 0 mm 0 mps 759 mmHg 34%
    13:00 +28°C° 0 mm 1 mps 758 mmHg 33%
    14:00 +28°C° 0 mm 1 mps 757 mmHg 32%
    15:00 +29°C° 0 mm 1 mps 757 mmHg 31%
    16:00 +28°C° 0 mm 1 mps 757 mmHg 33%
    17:00 +26°C° 0 mm 1 mps 757 mmHg 35%
    18:00 +25°C° 0 mm 1 mps 757 mmHg 40%
    19:00 +24°C° 0 mm 1 mps 757 mmHg 41%
    20:00 +24°C° 0 mm 1 mps 758 mmHg 42%
    21:00 +23°C° 0 mm 1 mps 758 mmHg 43%
    22:00 +23°C° 0 mm 1 mps 758 mmHg 44%
    23:00 +23°C° 0 mm 1 mps 759 mmHg 45%

    Tomorrow, 14 December, Friday

    Time Temperature Precipitation Wind Pressure Humidity
    00:00 +22°C° 0 mm 1 mps 759 mmHg 46%
    01:00 +22°C° 0 mm 1 mps 759 mmHg 47%
    02:00 +21°C° 0 mm 1 mps 759 mmHg 48%
    03:00 +21°C° 0 mm 1 mps 758 mmHg 50%
    04:00 +20°C° 0 mm 1 mps 759 mmHg 50%
    05:00 +20°C° 0 mm 1 mps 759 mmHg 51%
    06:00 +19°C° 0 mm 1 mps 759 mmHg 52%
    07:00 +20°C° 0 mm 1 mps 759 mmHg 49%
    08:00 +22°C° 0 mm 1 mps 760 mmHg 45%
    09:00 +23°C° 0 mm 1 mps 760 mmHg 42%
    10:00 +24°C° 0 mm 1 mps 760 mmHg 38%
    11:00 +26°C° 0 mm 2 mps 760 mmHg 34%
    12:00 +27°C° 0 mm 2 mps 760 mmHg 30%
    13:00 +28°C° 0 mm 3 mps 760 mmHg 27%
    14:00 +29°C° 0 mm 3 mps 759 mmHg 25%
    15:00 +29°C° 0 mm 3 mps 758 mmHg 22%
    16:00 +28°C° 0 mm 3 mps 758 mmHg 23%
    17:00 +26°C° 0 mm 3 mps 758 mmHg 25%
    18:00 +24°C° 0 mm 2 mps 758 mmHg 27%
    19:00 +24°C° 0 mm 2 mps 758 mmHg 27%
    20:00 +23°C° 0 mm 2 mps 759 mmHg 28%
    21:00 +21°C° 0 mm 2 mps 759 mmHg 28%
    22:00 +21°C° 0 mm 2 mps 760 mmHg 29%
    23:00 +20°C° 0 mm 2 mps 760 mmHg 30%

    Day after tomorrow, 15 December, Saturday

    Time Temperature Precipitation Wind Pressure Humidity
    00:00 +19°C° 0 mm 2 mps 760 mmHg 31%
    01:00 +19°C° 0 mm 2 mps 760 mmHg 33%
    02:00 +19°C° 0 mm 2 mps 760 mmHg 35%
    03:00 +18°C° 0 mm 2 mps 760 mmHg 36%
    04:00 +18°C° 0 mm 2 mps 759 mmHg 38%
    05:00 +17°C° 0 mm 2 mps 759 mmHg 39%
    06:00 +17°C° 0 mm 3 mps 759 mmHg 41%
    07:00 +18°C° 0 mm 2 mps 760 mmHg 39%
    08:00 +19°C° 0 mm 2 mps 761 mmHg 37%
    09:00 +20°C° 0 mm 2 mps 761 mmHg 36%
    10:00 +23°C° 0 mm 2 mps 761 mmHg 32%
    11:00 +24°C° 0 mm 2 mps 761 mmHg 29%
    12:00 +26°C° 0 mm 2 mps 761 mmHg 25%
    13:00 +27°C° 0 mm 2 mps 760 mmHg 24%
    14:00 +27°C° 0 mm 2 mps 759 mmHg 23%
    15:00 +28°C° 0 mm 2 mps 758 mmHg 21%
    16:00 +26°C° 0 mm 2 mps 759 mmHg 23%
    17:00 +25°C° 0 mm 2 mps 759 mmHg 26%
    18:00 +23°C° 0 mm 1 mps 759 mmHg 28%
    19:00 +22°C° 0 mm 1 mps 760 mmHg 29%
    20:00 +22°C° 0 mm 1 mps 760 mmHg 30%
    21:00 +21°C° 0 mm 1 mps 761 mmHg 32%
    22:00 +20°C° 0 mm 1 mps 761 mmHg 32%
    23:00 +20°C° 0 mm 1 mps 761 mmHg 33%

    16 December, Sunday

    Time Temperature Precipitation Wind Pressure Humidity
    00:00 +19°C° 0 mm 1 mps 761 mmHg 33%
    01:00 +19°C° 0 mm 1 mps 761 mmHg 34%
    02:00 +19°C° 0 mm 1 mps 760 mmHg 34%
    03:00 +18°C° 0 mm 1 mps 760 mmHg 34%
    04:00 +19°C° 0 mm 1 mps 760 mmHg 34%
    05:00 +19°C° 0 mm 1 mps 760 mmHg 33%
    06:00 +19°C° 0 mm 1 mps 760 mmHg 32%
    07:00 +19°C° 0 mm 1 mps 760 mmHg 32%
    08:00 +20°C° 0 mm 1 mps 761 mmHg 32%
    09:00 +20°C° 0 mm 1 mps 761 mmHg 32%
    10:00 +22°C° 0 mm 1 mps 761 mmHg 29%
    11:00 +24°C° 0 mm 1 mps 761 mmHg 26%
    12:00 +24°C° 0 mm 0 mps 761 mmHg 22%
    13:00 +23°C° 0 mm 0 mps 761 mmHg 24%
    14:00 +25°C° 0 mm 1 mps 760 mmHg 25%
    15:00 +25°C° 0 mm 1 mps 759 mmHg 26%
    16:00 +24°C° 0 mm 1 mps 759 mmHg 27%
    17:00 +23°C° 0 mm 1 mps 759 mmHg 28%
    18:00 +23°C° 0 mm 1 mps 759 mmHg 29%
    19:00 +22°C° 0 mm 1 mps 760 mmHg 30%
    20:00 +20°C° 0 mm 0 mps 760 mmHg 30%
    21:00 +20°C° 0 mm 0 mps 761 mmHg 30%
    22:00 +20°C° 0 mm 0 mps 760 mmHg 29%
    23:00 +22°C° 0 mm 1 mps 760 mmHg 29%

    17 December, Monday

    Time Temperature Precipitation Wind Pressure Humidity
    00:00 +22°C° 0 mm 1 mps 759 mmHg 28%
    01:00 +22°C° 0 mm 1 mps 759 mmHg 29%
    02:00 +22°C° 0 mm 1 mps 759 mmHg 29%
    03:00 +21°C° 0 mm 1 mps 759 mmHg 29%
    04:00 +21°C° 0.1 mm 1 mps 759 mmHg 33%
    05:00 +19°C° 0.1 mm 2 mps 759 mmHg 36%
    06:00 +19°C° 0.1 mm 2 mps 759 mmHg 39%
    07:00 +19°C° 0.1 mm 2 mps 760 mmHg 43%
    08:00 +20°C° 0.1 mm 1 mps 760 mmHg 48%
    09:00 +20°C° 0.1 mm 1 mps 761 mmHg 52%
    10:00 +20°C° 0.1 mm 1 mps 761 mmHg 53%
    11:00 +19°C° 0.1 mm 2 mps 761 mmHg 54%
    12:00 +19°C° 0.1 mm 2 mps 761 mmHg 55%
    13:00 +19°C° 0.2 mm 2 mps 760 mmHg 58%
    14:00 +18°C° 0.2 mm 2 mps 759 mmHg 61%
    15:00 +18°C° 0.2 mm 2 mps 759 mmHg 64%
    16:00 +18°C° 0.2 mm 2 mps 759 mmHg 66%
    17:00 +17°C° 0.2 mm 2 mps 759 mmHg 67%
    18:00 +18°C° 0.2 mm 1 mps 759 mmHg 69%
    19:00 +18°C° 0.6 mm 1 mps 759 mmHg 72%
    20:00 +18°C° 0.6 mm 1 mps 760 mmHg 74%
    21:00 +16°C° 0.6 mm 1 mps 760 mmHg 76%
    22:00 +16°C° 0.7 mm 1 mps 760 mmHg 78%
    23:00 +16°C° 0.7 mm 1 mps 760 mmHg 79%

    18 December, Tuesday

    Time Temperature Precipitation Wind Pressure Humidity
    00:00 +16°C° 0.7 mm 1 mps 760 mmHg 81%
    01:00 +16°C° 0.7 mm 1 mps 759 mmHg 81%
    02:00 +16°C° 0.7 mm 2 mps 759 mmHg 82%
    03:00 +15°C° 0.7 mm 2 mps 758 mmHg 83%
    04:00 +15°C° 0.6 mm 2 mps 758 mmHg 82%
    05:00 +15°C° 0.6 mm 2 mps 758 mmHg 82%
    06:00 +15°C° 0.6 mm 2 mps 758 mmHg 82%
    07:00 +15°C° 0.4 mm 2 mps 759 mmHg 81%
    08:00 +15°C° 0.4 mm 2 mps 760 mmHg 80%
    09:00 +16°C° 0.4 mm 2 mps 760 mmHg 79%
    10:00 +16°C° 0.3 mm 2 mps 760 mmHg 77%
    11:00 +16°C° 0.3 mm 2 mps 760 mmHg 75%
    12:00 +17°C° 0.3 mm 2 mps 759 mmHg 73%
    13:00 +18°C° 0 mm 1 mps 759 mmHg 71%
    14:00 +19°C° 0 mm 1 mps 758 mmHg 70%
    15:00 +19°C° 0 mm 1 mps 757 mmHg 68%
    16:00 +19°C° 0 mm 1 mps 757 mmHg 70%
    17:00 +18°C° 0 mm 1 mps 757 mmHg 73%
    18:00 +18°C° 0 mm 1 mps 757 mmHg 75%
    19:00 +16°C° 0 mm 1 mps 757 mmHg 77%
    20:00 +16°C° 0 mm 2 mps 758 mmHg 79%
    21:00 +15°C° 0 mm 2 mps 758 mmHg 81%
    22:00 +15°C° 0 mm 2 mps 758 mmHg 83%
    23:00 +15°C° 0 mm 2 mps 758 mmHg 85%
    Show more